EFKT

Kittilä Airport

Airport
ICAO code
EFKT
IATA Code
KTT
Summary
ICAO Region
EUR
ICAO Territory
Location

Kittilä, Lapland

Serving
Kittilä
Elevation
644 ft
Coordinates
67° 41' 42" N , 24° 51' 3" E
KCC
Airport CFIT
Altimeter Temperature Error Correction
Airport GND
Aircraft Ground De/Anti Icing
Airport RE
Landing on Contaminated Runways
Metar
Observation
EFKT 271320Z AUTO 22005KT CAVOK M06/M08 Q1007
Station
Kittila
Date/Time
2023-01-27 13:20:00
Wind direction
220°
Wind speed
05 kts
Lowest cloud amount
clouds and visibility OK
Temperature
-6°C
Dew point
-8°C
Humidity
85%
QNH
1007 hPa
Weather condition
n/a

Description

Largely domestic but also international airport located in Kittilä, Finland.

Climatology

Subarctic climate (Köppen climate classification Dfc) - long, usually very cold winters, and short, cool to mild summers.

Runways

Designator Length Width Surface Rops
16/34 2500 45 ASP Yes/Yes

Airport map

Aerial View

SKYbrary Partners:

Safety knowledge contributed by: